When you browse on this site, cookies collect data to enhance your experience and personalize the content and advertising you see.
Visit our Privacy Policy to learn more. By continuing to use the site, you agree to this use of cookies and data.
  • In Hungary
  • List of Countries
  • For 7 days
  • Water Temperature
  • Satellite Maps
  • Weather Map
  • News
  • Weather Widgets
  • user-avatar
    Login

    Hourly Weather Southport

    Today, 13 December, Thursday

    Time Temperature Precipitation Wind Pressure Humidity
    00:00 0°C° 0 mm 10 mps 761 mmHg 73%
    01:00 0°C° 0 mm 10 mps 761 mmHg 74%
    02:00 0°C° 0 mm 10 mps 761 mmHg 75%
    03:00 0°C° 0 mm 10 mps 761 mmHg 76%
    04:00 0°C° 0 mm 10 mps 761 mmHg 77%
    05:00 0°C° 0 mm 10 mps 761 mmHg 77%
    06:00 0°C° 0 mm 10 mps 761 mmHg 77%
    07:00 0°C° 0 mm 10 mps 761 mmHg 77%
    08:00 0°C° 0 mm 10 mps 761 mmHg 77%
    09:00 0°C° 0 mm 10 mps 761 mmHg 76%
    10:00 +1°C° 0 mm 10 mps 762 mmHg 74%
    11:00 +1°C° 0 mm 10 mps 762 mmHg 71%
    12:00 +2°C° 0 mm 10 mps 762 mmHg 69%
    13:00 +2°C° 0 mm 9 mps 762 mmHg 70%
    14:00 +2°C° 0 mm 9 mps 762 mmHg 71%
    15:00 +2°C° 0 mm 9 mps 763 mmHg 71%
    16:00 +1°C° 0 mm 8 mps 763 mmHg 73%
    17:00 +1°C° 0 mm 8 mps 763 mmHg 75%
    18:00 0°C° 0 mm 8 mps 764 mmHg 76%
    19:00 0°C° 0 mm 8 mps 764 mmHg 77%
    20:00 0°C° 0 mm 7 mps 765 mmHg 78%
    21:00 0°C° 0 mm 7 mps 765 mmHg 79%
    22:00 0°C° 0 mm 7 mps 765 mmHg 80%
    23:00 -1°C° 0 mm 6 mps 766 mmHg 81%

    Tomorrow, 14 December, Friday

    Time Temperature Precipitation Wind Pressure Humidity
    00:00 -1°C° 0 mm 6 mps 766 mmHg 82%
    01:00 -1°C° 0 mm 6 mps 766 mmHg 82%
    02:00 -1°C° 0 mm 6 mps 766 mmHg 83%
    03:00 -1°C° 0 mm 6 mps 766 mmHg 83%
    04:00 -1°C° 0 mm 6 mps 766 mmHg 84%
    05:00 -1°C° 0 mm 6 mps 766 mmHg 84%
    06:00 -2°C° 0 mm 6 mps 766 mmHg 85%
    07:00 -2°C° 0 mm 6 mps 767 mmHg 85%
    08:00 -2°C° 0 mm 6 mps 767 mmHg 85%
    09:00 -2°C° 0 mm 6 mps 767 mmHg 85%
    10:00 -1°C° 0 mm 7 mps 767 mmHg 79%
    11:00 0°C° 0 mm 7 mps 766 mmHg 74%
    12:00 +1°C° 0 mm 8 mps 766 mmHg 68%
    13:00 +2°C° 0 mm 7 mps 766 mmHg 69%
    14:00 +2°C° 0 mm 7 mps 766 mmHg 71%
    15:00 0°C° 0 mm 7 mps 766 mmHg 72%
    16:00 0°C° 0 mm 7 mps 766 mmHg 74%
    17:00 0°C° 0 mm 8 mps 765 mmHg 76%
    18:00 -1°C° 0 mm 8 mps 765 mmHg 78%
    19:00 -1°C° 0 mm 8 mps 765 mmHg 78%
    20:00 -1°C° 0 mm 8 mps 765 mmHg 78%
    21:00 -1°C° 0 mm 9 mps 765 mmHg 78%
    22:00 -1°C° 0 mm 9 mps 764 mmHg 77%
    23:00 -1°C° 0 mm 9 mps 764 mmHg 77%

    Day after tomorrow, 15 December, Saturday

    Time Temperature Precipitation Wind Pressure Humidity
    00:00 -1°C° 0 mm 9 mps 763 mmHg 76%
    01:00 0°C° 0 mm 10 mps 762 mmHg 74%
    02:00 0°C° 0 mm 10 mps 762 mmHg 72%
    03:00 -1°C° 0 mm 11 mps 761 mmHg 70%
    04:00 -1°C° 0.3 mm 11 mps 760 mmHg 72%
    05:00 -1°C° 0.3 mm 11 mps 759 mmHg 74%
    06:00 -1°C° 0.3 mm 11 mps 758 mmHg 75%
    07:00 -1°C° 1.3 mm 12 mps 757 mmHg 78%
    08:00 -1°C° 1.3 mm 12 mps 757 mmHg 80%
    09:00 -1°C° 1.3 mm 13 mps 756 mmHg 83%
    10:00 -1°C° 1.3 mm 12 mps 755 mmHg 83%
    11:00 -1°C° 1.3 mm 12 mps 754 mmHg 83%
    12:00 -1°C° 1.3 mm 12 mps 753 mmHg 83%
    13:00 0°C° 0.3 mm 12 mps 752 mmHg 84%
    14:00 0°C° 0.3 mm 13 mps 750 mmHg 84%
    15:00 0°C° 0.3 mm 13 mps 749 mmHg 85%
    16:00 +1°C° 1.2 mm 13 mps 746 mmHg 86%
    17:00 +3°C° 1.2 mm 14 mps 744 mmHg 87%
    18:00 +3°C° 1.2 mm 14 mps 742 mmHg 88%
    19:00 +4°C° 0.8 mm 13 mps 741 mmHg 87%
    20:00 +5°C° 0.8 mm 12 mps 740 mmHg 86%
    21:00 +7°C° 0.8 mm 11 mps 739 mmHg 85%
    22:00 +7°C° 0.6 mm 13 mps 740 mmHg 83%
    23:00 +5°C° 0.6 mm 14 mps 741 mmHg 81%

    16 December, Sunday

    Time Temperature Precipitation Wind Pressure Humidity
    00:00 +5°C° 0.6 mm 16 mps 742 mmHg 79%
    01:00 +4°C° 0.5 mm 14 mps 744 mmHg 77%
    02:00 +4°C° 0.5 mm 13 mps 745 mmHg 74%
    03:00 +4°C° 0.5 mm 12 mps 747 mmHg 72%
    04:00 +4°C° 0.1 mm 11 mps 748 mmHg 73%
    05:00 +3°C° 0.1 mm 10 mps 749 mmHg 75%
    06:00 +3°C° 0.1 mm 9 mps 750 mmHg 76%
    07:00 +4°C° 0 mm 8 mps 751 mmHg 78%
    08:00 +3°C° 0 mm 7 mps 751 mmHg 80%
    09:00 +3°C° 0 mm 6 mps 752 mmHg 82%
    10:00 +4°C° 0.1 mm 6 mps 752 mmHg 81%
    11:00 +4°C° 0.1 mm 6 mps 752 mmHg 80%
    12:00 +5°C° 0.1 mm 6 mps 753 mmHg 80%
    13:00 +5°C° 0.3 mm 5 mps 753 mmHg 82%
    14:00 +5°C° 0.3 mm 5 mps 753 mmHg 83%
    15:00 +5°C° 0.3 mm 5 mps 753 mmHg 85%
    16:00 +5°C° 0.5 mm 4 mps 753 mmHg 87%
    17:00 +5°C° 0.5 mm 4 mps 753 mmHg 89%
    18:00 +4°C° 0.5 mm 3 mps 754 mmHg 91%
    19:00 +4°C° 0.1 mm 3 mps 754 mmHg 92%
    20:00 +4°C° 0.1 mm 3 mps 755 mmHg 92%
    21:00 +4°C° 0.1 mm 3 mps 755 mmHg 92%
    22:00 +4°C° 0 mm 3 mps 755 mmHg 91%
    23:00 +4°C° 0 mm 3 mps 756 mmHg 90%

    17 December, Monday

    Time Temperature Precipitation Wind Pressure Humidity
    00:00 +3°C° 0 mm 3 mps 756 mmHg 89%
    01:00 +3°C° 0 mm 3 mps 756 mmHg 88%
    02:00 +3°C° 0 mm 3 mps 757 mmHg 88%
    03:00 +3°C° 0 mm 3 mps 757 mmHg 87%
    04:00 +3°C° 0 mm 3 mps 757 mmHg 87%
    05:00 +3°C° 0 mm 3 mps 758 mmHg 87%
    06:00 +3°C° 0 mm 3 mps 758 mmHg 88%
    07:00 +3°C° 0 mm 3 mps 759 mmHg 88%
    08:00 +3°C° 0 mm 3 mps 759 mmHg 88%
    09:00 +3°C° 0 mm 3 mps 760 mmHg 88%
    10:00 +3°C° 0 mm 3 mps 760 mmHg 87%
    11:00 +4°C° 0 mm 3 mps 760 mmHg 85%
    12:00 +5°C° 0 mm 4 mps 760 mmHg 83%
    13:00 +5°C° 0 mm 4 mps 760 mmHg 85%
    14:00 +5°C° 0 mm 4 mps 760 mmHg 86%
    15:00 +3°C° 0 mm 5 mps 760 mmHg 87%
    16:00 +3°C° 0 mm 5 mps 760 mmHg 88%
    17:00 +3°C° 0 mm 5 mps 759 mmHg 89%
    18:00 +3°C° 0 mm 6 mps 759 mmHg 90%
    19:00 +3°C° 0 mm 7 mps 759 mmHg 90%
    20:00 +3°C° 0 mm 7 mps 759 mmHg 90%
    21:00 +2°C° 0 mm 8 mps 759 mmHg 89%
    22:00 +4°C° 0 mm 8 mps 758 mmHg 89%
    23:00 +4°C° 0 mm 8 mps 757 mmHg 89%

    18 December, Tuesday

    Time Temperature Precipitation Wind Pressure Humidity
    00:00 +5°C° 0 mm 9 mps 757 mmHg 89%
    01:00 +5°C° 0 mm 9 mps 756 mmHg 89%
    02:00 +6°C° 0 mm 10 mps 755 mmHg 89%
    03:00 +6°C° 0 mm 10 mps 754 mmHg 88%
    04:00 +7°C° 0.1 mm 11 mps 753 mmHg 88%
    05:00 +7°C° 0.1 mm 11 mps 753 mmHg 87%
    06:00 +7°C° 0.1 mm 11 mps 752 mmHg 86%
    07:00 +8°C° 0.4 mm 11 mps 752 mmHg 86%
    08:00 +8°C° 0.4 mm 11 mps 751 mmHg 85%
    09:00 +8°C° 0.4 mm 11 mps 751 mmHg 84%
    10:00 +8°C° 0.7 mm 11 mps 751 mmHg 84%
    11:00 +7°C° 0.7 mm 11 mps 750 mmHg 84%
    12:00 +7°C° 0.7 mm 12 mps 750 mmHg 84%
    13:00 +7°C° 0.8 mm 11 mps 750 mmHg 84%
    14:00 +7°C° 0.8 mm 9 mps 750 mmHg 84%
    15:00 +6°C° 0.8 mm 8 mps 749 mmHg 84%
    16:00 +6°C° 0.6 mm 8 mps 749 mmHg 85%
    17:00 +6°C° 0.6 mm 8 mps 749 mmHg 86%
    18:00 +6°C° 0.6 mm 8 mps 749 mmHg 87%
    19:00 +5°C° 0.8 mm 7 mps 749 mmHg 87%
    20:00 +5°C° 0.8 mm 7 mps 749 mmHg 87%
    21:00 +5°C° 0.8 mm 6 mps 748 mmHg 87%
    22:00 +5°C° 1 mm 6 mps 748 mmHg 88%
    23:00 +6°C° 1 mm 5 mps 748 mmHg 88%
    Show more